• In Netherlands
  • List of Countries
  • For 7 days
  • Water Temperature
  • Satellite Maps
  • Weather Map
  • Weather Widgets
  • user-avatar
    Login

    Hourly Weather Abomey

    Today, 24 June, Saturday

    Time Temperature Precipitation Wind Pressure Humidity
    00:00 +26°C° 0.1 mm 1 mps 739 mmHg 93%
    01:00 +25°C° 0 mm 1 mps 739 mmHg 94%
    02:00 +25°C° 0 mm 1 mps 738 mmHg 94%
    03:00 +25°C° 0 mm 1 mps 738 mmHg 95%
    04:00 +25°C° 0 mm 1 mps 738 mmHg 95%
    05:00 +25°C° 0 mm 1 mps 738 mmHg 95%
    06:00 +25°C° 0 mm 1 mps 738 mmHg 95%
    07:00 +26°C° 0 mm 2 mps 739 mmHg 86%
    08:00 +28°C° 0 mm 2 mps 739 mmHg 77%
    09:00 +30°C° 0 mm 3 mps 740 mmHg 68%
    10:00 +31°C° 0 mm 3 mps 739 mmHg 62%
    11:00 +33°C° 0 mm 3 mps 739 mmHg 57%
    12:00 +35°C° 0 mm 3 mps 739 mmHg 52%
    13:00 +35°C° 0 mm 3 mps 739 mmHg 52%
    14:00 +35°C° 0 mm 4 mps 738 mmHg 52%
    15:00 +35°C° 0 mm 4 mps 737 mmHg 51%
    16:00 +33°C° 0.1 mm 4 mps 738 mmHg 57%
    17:00 +31°C° 0.1 mm 3 mps 738 mmHg 63%
    18:00 +29°C° 0.1 mm 3 mps 739 mmHg 68%
    19:00 +28°C° 0 mm 3 mps 739 mmHg 73%
    20:00 +27°C° 0 mm 2 mps 739 mmHg 77%
    21:00 +26°C° 0 mm 2 mps 740 mmHg 82%
    22:00 +26°C° 0 mm 2 mps 740 mmHg 84%
    23:00 +26°C° 0 mm 2 mps 739 mmHg 86%

    Tomorrow, 25 June, Sunday

    Time Temperature Precipitation Wind Pressure Humidity
    00:00 +25°C° 0 mm 2 mps 739 mmHg 89%
    01:00 +25°C° 0 mm 1 mps 739 mmHg 90%
    02:00 +25°C° 0 mm 1 mps 738 mmHg 91%
    03:00 +25°C° 0 mm 1 mps 738 mmHg 92%
    04:00 +25°C° 0 mm 1 mps 738 mmHg 93%
    05:00 +25°C° 0 mm 1 mps 738 mmHg 94%
    06:00 +24°C° 0 mm 1 mps 739 mmHg 94%
    07:00 +26°C° 0 mm 1 mps 739 mmHg 84%
    08:00 +28°C° 0 mm 1 mps 740 mmHg 74%
    09:00 +30°C° 0 mm 2 mps 740 mmHg 63%
    10:00 +32°C° 0.1 mm 2 mps 740 mmHg 57%
    11:00 +34°C° 0.1 mm 1 mps 740 mmHg 51%
    12:00 +35°C° 0.1 mm 1 mps 739 mmHg 45%
    13:00 +35°C° 0.5 mm 2 mps 739 mmHg 49%
    14:00 +35°C° 0.5 mm 2 mps 738 mmHg 53%
    15:00 +34°C° 0.5 mm 2 mps 737 mmHg 58%
    16:00 +31°C° 1.3 mm 2 mps 737 mmHg 66%
    17:00 +29°C° 1.3 mm 2 mps 737 mmHg 74%
    18:00 +28°C° 1.3 mm 2 mps 738 mmHg 83%
    19:00 +27°C° 0.6 mm 1 mps 738 mmHg 85%
    20:00 +27°C° 0.6 mm 1 mps 739 mmHg 87%
    21:00 +26°C° 0.6 mm 1 mps 739 mmHg 89%
    22:00 +26°C° 0.1 mm 1 mps 739 mmHg 90%
    23:00 +26°C° 0.1 mm 1 mps 739 mmHg 91%

    Day after tomorrow, 26 June, Monday

    Time Temperature Precipitation Wind Pressure Humidity
    00:00 +26°C° 0.1 mm 1 mps 739 mmHg 92%
    01:00 +25°C° 0.1 mm 1 mps 739 mmHg 92%
    02:00 +25°C° 0.1 mm 1 mps 738 mmHg 92%
    03:00 +25°C° 0.1 mm 1 mps 738 mmHg 92%
    04:00 +25°C° 0.1 mm 1 mps 738 mmHg 92%
    05:00 +25°C° 0.1 mm 1 mps 738 mmHg 92%
    06:00 +25°C° 0.1 mm 1 mps 739 mmHg 92%
    07:00 +26°C° 0.1 mm 1 mps 739 mmHg 87%
    08:00 +27°C° 0.1 mm 1 mps 740 mmHg 82%
    09:00 +28°C° 0.1 mm 1 mps 740 mmHg 77%
    10:00 +29°C° 0 mm 1 mps 740 mmHg 71%
    11:00 +30°C° 0 mm 1 mps 740 mmHg 65%
    12:00 +32°C° 0 mm 1 mps 739 mmHg 59%
    13:00 +33°C° 0 mm 1 mps 739 mmHg 55%
    14:00 +33°C° 0 mm 1 mps 738 mmHg 52%
    15:00 +34°C° 0 mm 1 mps 737 mmHg 48%
    16:00 +33°C° 0 mm 1 mps 737 mmHg 53%
    17:00 +32°C° 0 mm 1 mps 737 mmHg 58%
    18:00 +30°C° 0 mm 1 mps 738 mmHg 64%
    19:00 +29°C° 0 mm 1 mps 738 mmHg 67%
    20:00 +29°C° 0 mm 2 mps 739 mmHg 70%
    21:00 +28°C° 0 mm 2 mps 739 mmHg 73%
    22:00 +28°C° 0.1 mm 2 mps 739 mmHg 77%
    23:00 +27°C° 0.1 mm 2 mps 739 mmHg 80%

    27 June, Tuesday

    Time Temperature Precipitation Wind Pressure Humidity
    00:00 +26°C° 0.1 mm 2 mps 739 mmHg 84%
    01:00 +26°C° 0 mm 2 mps 738 mmHg 86%
    02:00 +26°C° 0 mm 2 mps 738 mmHg 87%
    03:00 +25°C° 0 mm 2 mps 738 mmHg 89%
    04:00 +25°C° 0.3 mm 1 mps 738 mmHg 90%
    05:00 +25°C° 0.3 mm 1 mps 739 mmHg 91%
    06:00 +25°C° 0.3 mm 1 mps 739 mmHg 92%
    07:00 +26°C° 1.4 mm 1 mps 740 mmHg 91%
    08:00 +26°C° 1.4 mm 1 mps 740 mmHg 90%
    09:00 +27°C° 1.4 mm 1 mps 741 mmHg 89%
    10:00 +28°C° 0.2 mm 1 mps 740 mmHg 84%
    11:00 +28°C° 0.2 mm 1 mps 740 mmHg 80%
    12:00 +29°C° 0.2 mm 1 mps 739 mmHg 76%
    13:00 +30°C° 0.4 mm 1 mps 739 mmHg 72%
    14:00 +31°C° 0.4 mm 1 mps 739 mmHg 68%
    15:00 +31°C° 0.4 mm 1 mps 738 mmHg 64%
    16:00 +30°C° 0.1 mm 1 mps 739 mmHg 69%
    17:00 +29°C° 0.1 mm 1 mps 739 mmHg 74%
    18:00 +28°C° 0.1 mm 1 mps 739 mmHg 79%
    19:00 +27°C° 0.1 mm 1 mps 739 mmHg 82%
    20:00 +27°C° 0.1 mm 1 mps 740 mmHg 85%
    21:00 +26°C° 0.1 mm 1 mps 740 mmHg 88%
    22:00 +26°C° 0 mm 2 mps 740 mmHg 88%
    23:00 +25°C° 0 mm 2 mps 740 mmHg 89%

    28 June, Wednesday

    Time Temperature Precipitation Wind Pressure Humidity
    00:00 +25°C° 0 mm 2 mps 740 mmHg 90%
    01:00 +25°C° 0 mm 2 mps 739 mmHg 91%
    02:00 +25°C° 0 mm 1 mps 739 mmHg 92%
    03:00 +24°C° 0 mm 1 mps 739 mmHg 93%
    04:00 +24°C° 0 mm 1 mps 740 mmHg 93%
    05:00 +24°C° 0 mm 1 mps 740 mmHg 93%
    06:00 +24°C° 0 mm 1 mps 741 mmHg 93%
    07:00 +26°C° 0 mm 1 mps 741 mmHg 85%
    08:00 +27°C° 0 mm 1 mps 741 mmHg 77%
    09:00 +28°C° 0 mm 1 mps 742 mmHg 69%
    10:00 +30°C° 0 mm 1 mps 741 mmHg 64%
    11:00 +31°C° 0 mm 1 mps 741 mmHg 58%
    12:00 +32°C° 0 mm 1 mps 740 mmHg 53%
    13:00 +32°C° 0 mm 1 mps 740 mmHg 52%
    14:00 +32°C° 0 mm 2 mps 739 mmHg 51%
    15:00 +32°C° 0 mm 2 mps 739 mmHg 50%
    16:00 +31°C° 0 mm 2 mps 739 mmHg 55%
    17:00 +30°C° 0 mm 2 mps 739 mmHg 59%
    18:00 +29°C° 0 mm 2 mps 740 mmHg 64%
    19:00 +28°C° 0 mm 2 mps 740 mmHg 69%
    20:00 +27°C° 0 mm 2 mps 741 mmHg 74%
    21:00 +26°C° 0 mm 2 mps 741 mmHg 80%
    22:00 +26°C° 0 mm 2 mps 741 mmHg 81%
    23:00 +26°C° 0 mm 2 mps 741 mmHg 83%

    29 June, Thursday

    Time Temperature Precipitation Wind Pressure Humidity
    00:00 +26°C° 0 mm 2 mps 740 mmHg 84%
    01:00 +25°C° 0 mm 2 mps 740 mmHg 85%
    02:00 +25°C° 0 mm 1 mps 740 mmHg 86%
    03:00 +25°C° 0 mm 1 mps 739 mmHg 87%
    04:00 +25°C° 0 mm 1 mps 740 mmHg 88%
    05:00 +25°C° 0 mm 1 mps 740 mmHg 88%
    06:00 +25°C° 0 mm 1 mps 741 mmHg 89%
    07:00 +26°C° 0 mm 1 mps 741 mmHg 84%
    08:00 +27°C° 0 mm 1 mps 741 mmHg 78%
    09:00 +28°C° 0 mm 2 mps 742 mmHg 73%
    10:00 +29°C° 0.1 mm 2 mps 741 mmHg 68%
    11:00 +30°C° 0.1 mm 2 mps 741 mmHg 63%
    12:00 +31°C° 0.1 mm 2 mps 741 mmHg 58%
    13:00 +32°C° 0 mm 2 mps 740 mmHg 57%
    14:00 +32°C° 0 mm 2 mps 739 mmHg 56%
    15:00 +32°C° 0 mm 2 mps 739 mmHg 55%
    16:00 +31°C° 0 mm 2 mps 739 mmHg 60%
    17:00 +30°C° 0 mm 2 mps 739 mmHg 65%
    18:00 +28°C° 0 mm 2 mps 739 mmHg 69%
    19:00 +28°C° 0.1 mm 2 mps 740 mmHg 74%
    20:00 +27°C° 0.1 mm 2 mps 740 mmHg 79%
    21:00 +26°C° 0.1 mm 2 mps 741 mmHg 84%
    22:00 +26°C° 0.1 mm 2 mps 740 mmHg 84%
    23:00 +25°C° 0.1 mm 2 mps 740 mmHg 85%
    Show more